Location: *
(37.4917°N, 71.5558°E)
Time: 01:36:47
(UTC+00:00)

BREEZE-M DEB (TANK) - Pass Details

Date: 09 April 2020
Orbit: 295 x 15766 km, 49.4° (Epoch: 31 May)

Event Time Altitude Azimuth Distance (km) Brightness Sun altitude
Exits shadow 22:07:53 25° 47° (NE) 1,014 4.3 -29.2°
Drops below altitude 10° 22:08:56 10° 50° (NE) 1,488 5.5 -29.0°
Sets 22:10:16 0° 52° (NE) 2,144 6.6 -28.8°
